Regional Weather Roundup
Issued by NWS

Home | Current Version | Previous Version | Text Only | Print | Product List | Glossary On
Versions: 1 2 3 4 5 6 7 8 9 10 11 12 13 14 15 16 17 18 19 20 21 22 23 24 25 26 27 28
000
ASCA42 TJSJ 250310
RWRPR
PUERTO RICO/U.S. VIRGIN ISLANDS HOURLY WEATHER ROUNDUP
NATIONAL WEATHER SERVICE SAN JUAN PR
1100 PM AST TUE MAY 24 2016

PRZ001-004-250400-
PUERTO RICO

CITY           SKY/WX    TMP DP  RH WIND       PRES   REMARKS
SAN JUAN LMM   PTCLDY    81  75  83 E8        30.13R
CEIBA          MOCLDY    81  75  83 E7        30.15R
$$

PRZ006-007-250400-
U.S. VIRGIN ISLANDS

CITY           SKY/WX    TMP DP  RH WIND       PRES   REMARKS
CHARLOTTE AMA  CLEAR     82  75  78 E7        30.12R
CHRISTIANSTED  CLOUDY    81  73  78 NE8       30.12R
$$

HOURLY WEATHER ROUNDUP FOR THE NEWS MEDIA

CITY           SKY/WX    TMP DP  RH WIND       PRES   REMARKS
ORLANDO        CLEAR     73  59  61 E6        30.17R
NEW YORK       MOCLDY    64  57  78 CALM      29.99S
NEWARK         CLOUDY    68  51  54 CALM      29.98S
CHICAGO        CLOUDY    77  54  44 S10       29.96R
HARTFORD       MOCLDY    53  51  93 NW5       29.96R
BOSTON         CLOUDY    53  51  93 N6        29.98S
DALLAS         CLOUDY    84  73  69 S15G23    29.91R HX  90
PHILADELPHIA   CLEAR     73  47  39 N5        29.99R
LOS ANGELES    MOCLDY    61  53  75 SW13      30.03R
WASHINGTON DC  FAIR      61  53  75 CALM      30.07R



USA.gov is the U.S. government's official web portal to all federal, state and local government web resources and services.